This is the latest recevied weather packets stored in our database for station/object LZ2SMX-2. If no packets are shown the sender has not sent any weather packets the latest 10 day(s).
| Time | Temp. | Humidity | Pressure | Rain* | Wind** | Luminosity | Snow |
|---|---|---|---|---|---|---|---|
| 1777163596 | 10° C | 72% | 987 hPa | 0 mm | - | - | - |
| 1777162396 | 10° C | 72% | 987 hPa | 0 mm | - | - | - |
| 1777161196 | 10.56° C | 70% | 987 hPa | 0 mm | - | - | - |
| 1777159996 | 10.56° C | 68% | 988 hPa | 0 mm | - | - | - |
| 1777158796 | 11.67° C | 68% | 988 hPa | 0 mm | - | - | - |
| 1777157596 | 11.67° C | 64% | 988 hPa | 0 mm | - | - | - |
| 1777156397 | 12.78° C | 64% | 988 hPa | 0 mm | - | - | - |
| 1777155196 | 12.78° C | 65% | 988 hPa | 0 mm | - | - | - |
| 1777153996 | 10.56° C | 68% | 988 hPa | 0 mm | - | - | - |
| 1777152797 | 10.56° C | 66% | 988 hPa | 0 mm | - | - | - |
| 1777151596 | 10° C | 65% | 988 hPa | 0 mm | - | - | - |
| 1777150396 | 10.56° C | 64% | 989 hPa | 0 mm | - | - | - |
| 1777149196 | 10.56° C | 64% | 988 hPa | 0 mm | - | - | - |
| 1777147996 | 10.56° C | 64% | 989 hPa | 0 mm | - | - | - |
| 1777146795 | 11.67° C | 65% | 989 hPa | 0 mm | - | - | - |
| 1777145595 | 11.67° C | 64% | 989 hPa | 0 mm | - | - | - |
| 1777144396 | 11.67° C | 65% | 989 hPa | 0 mm | - | - | - |
| 1777143196 | 11.67° C | 65% | 988 hPa | 0 mm | - | - | - |
| 1777141996 | 12.78° C | 65% | 988 hPa | 0 mm | - | - | - |
| 1777140796 | 12.78° C | 67% | 988 hPa | 0 mm | - | - | - |
| 1777139597 | 13.89° C | 66% | 988 hPa | 0 mm | - | - | - |
| 1777138396 | 13.89° C | 65% | 987 hPa | 0 mm | - | - | - |
| 1777137196 | 13.89° C | 64% | 987 hPa | 0 mm | - | - | - |
| 1777135997 | 15° C | 65% | 987 hPa | 0 mm | - | - | - |
| 1777134797 | 15.56° C | 61% | 988 hPa | 0 mm | - | - | - |
* Rain latest hour (hover to see other rain measurements)
** Current wind speed in m/s (hover to see current wind gust speed)